Temp
15 12 11 14 15 16 17 17 17 18 20 18 17 17 18 20 20 18 14 13 11 10 9 9 8 7 6 6 6 6 7 8 7 9 9 8 5 5 6 6 7 7 8 9
13 12 15 17 17 17 17 17 17 18 20 19 16 16 17 19 19 19 16 12 11 10 9 8 7 7 6 6 5 5 5 7 7 7 7 6 5 5 4 5 5 6 7 8
13 15 17 17 17 17 18 17 18 18 19 19 18 16 17 18 19 17 15 14 12 11 9 8 7 6 6 5 4 4 4 5 6 6 6 6 6 5 5 6 4 4 5 7
14 16 16 17 16 18 16 19 19 19 17 15 18 14 16 17 18 14 13 13 12 10 9 8 7 6 4 3 3 3 4 5 6 7 7 7 6 5 5 4 4 4 3 4
14 16 15 16 17 18 17 19 18 18 16 16 16 13 15 17 14 13 11 11 11 11 9 7 7 5 4 3 3 2 3 4 5 6 6 6 5 5 5 5 5 4 3 3
15 18 17 17 18 18 19 17 16 15 14 9 14 14 14 15 17 13 12 11 10 9 8 7 5 4 4 3 3 2 2 4 4 5 5 5 5 4 4 4 3 3 2 2
14 15 17 18 16 17 17 13 8 10 9 11 15 15 16 16 17 15 13 10 10 9 7 6 5 4 3 3 3 1 2 3 4 4 4 4 4 3 3 2 1 0 -1 -2
12 12 15 17 16 16 16 15 10 11 10 12 16 13 15 16 16 15 13 9 9 8 7 5 4 4 3 3 3 3 3 3 3 3 2 1 2 1 1 0 -1 -2 -3 -3
12 13 16 17 16 16 14 13 15 13 13 8 12 15 14 13 12 12 10 8 7 7 6 5 4 4 3 3 4 3 3 3 3 2 1 1 1 0 -1 -2 -3 -4 -4 -3
14 12 15 17 17 16 15 15 13 10 11 11 13 13 10 11 10 11 8 6 6 6 5 5 4 3 2 3 3 3 3 3 2 1 0 -0 -2 -2 -2 -2 -3 -3 -3 -3
14 12 12 15 15 15 14 14 14 13 11 10 10 9 14 11 11 10 8 7 6 6 5 4 3 3 2 2 2 2 2 1 0 -1 -2 -2 -3 -4 -3 -2 -3 -4 -4 -4
14 12 11 12 16 16 15 15 14 10 10 8 7 8 13 12 12 12 10 7 6 6 5 4 4 3 2 1 1 1 0 -1 -2 -3 -4 -4 -4 -4 -4 -4 -4 -5 -5 -5
9 10 9 12 14 14 14 14 14 13 10 10 7 10 13 14 13 13 12 8 7 6 5 4 4 3 2 1 1 -0 -2 -3 -3 -3 -3 -3 -3 -3 -4 -4 -5 -4 -5 -5
7 10 11 11 12 13 12 14 14 12 9 10 10 11 12 14 11 10 10 7 6 6 6 5 4 3 1 1 0 -1 -2 -3 -3 -4 -4 -4 -4 -4 -4 -4 -4 -4 -5 -5
5 6 6 10 11 11 10 11 12 11 10 9 10 9 11 12 10 10 9 8 8 7 5 5 4 3 1 1 -0 -2 -3 -4 -3 -4 -4 -4 -4 -4 -4 -4 -4 -4 -5 -6
5 5 4 5 9 10 8 10 10 10 10 10 9 8 11 12 13 11 11 9 8 5 5 5 5 3 1 1 -1 -2 -3 -4 -4 -4 -5 -5 -4 -4 -4 -4 -4 -4 -5 -5
6 5 5 6 8 8 7 9 9 10 10 10 9 9 10 11 12 13 11 11 8 6 6 5 4 3 1 0 -0 -3 -3 -3 -4 -4 -5 -4 -4 -4 -4 -4 -5 -6 -6 -6
5 5 5 5 6 5 8 10 10 10 10 10 12 12 12 13 12 11 13 12 8 6 6 5 4 2 0 -1 -1 -3 -3 -4 -5 -5 -5 -5 -4 -4 -5 -5 -6 -7 -7 -7
6 5 3 3 4 7 8 9 9 8 9 10 9 9 11 12 10 8 11 11 11 7 6 5 4 1 0 -0 -2 -3 -4 -4 -5 -5 -5 -5 -5 -5 -5 -6 -7 -9 -9 -9
6 5 3 2 3 5 6 10 11 9 6 8 9 9 8 9 5 2 7 9 8 6 5 5 3 2 1 -1 -3 -4 -4 -5 -5 -5 -5 -5 -5 -5 -6 -7 -8 -9 -10 -10
3 3 4 4 4 4 6 9 10 7 5 10 9 8 8 3 2 3 5 6 6 5 4 3 2 1 -1 -2 -3 -4 -5 -5 -5 -5 -6 -6 -6 -7 -7 -8 -9 -10 -10 -11
4 4 4 4 4 4 8 9 8 6 8 9 8 7 4 2 1 3 3 3 3 3 1 1 1 -1 -3 -3 -4 -5 -5 -6 -6 -6 -7 -7 -7 -8 -9 -9 -10 -11 -11 -11
3 3 3 4 3 5 8 8 9 9 8 8 7 6 6 1 -0 0 0 -1 -1 0 0 -0 -0 -2 -4 -4 -5 -5 -5 -5 -6 -7 -7 -8 -9 -9 -10 -10 -10 -10 -10 -10
5 4 1 4 5 6 8 8 9 8 8 7 7 6 5 3 -1 -1 -2 -2 -2 -1 -1 -2 -3 -4 -5 -5 -5 -5 -6 -6 -7 -7 -8 -9 -10 -10 -9 -9 -10 -9 -10 -10
3 3 2 2 3 6 7 7 6 7 6 6 5 5 4 2 -2 -2 -2 -3 -2 -2 -3 -3 -4 -5 -5 -6 -6 -6 -6 -7 -7 -8 -9 -9 -9 -9 -9 -9 -10 -10 -10 -11
4 2 1 2 5 5 5 6 6 5 5 4 4 2 1 -0 -3 -3 -3 -2 -3 -3 -4 -5 -5 -5 -6 -6 -6 -6 -7 -7 -8 -8 -9 -9 -9 -9 -9 -10 -10 -11 -11 -11
Height
1495 1502 1502 1491 1492 1493 1492 1492 1494 1485 1478 1484 1492 1493 1488 1490 1494 1496 1500 1503 1506 1509 1514 1517 1519 1520 1522 1522 1521 1518 1516 1515 1513 1511 1510 1510 1508 1508 1505 1503 1503 1500 1499 1499
1499 1492 1485 1487 1488 1490 1489 1489 1491 1481 1478 1482 1488 1490 1485 1484 1485 1488 1492 1497 1501 1506 1510 1514 1516 1519 1521 1521 1520 1518 1516 1514 1512 1511 1510 1509 1508 1507 1504 1503 1501 1499 1498 1498
1489 1479 1482 1481 1481 1485 1482 1485 1486 1485 1476 1478 1483 1490 1485 1481 1481 1481 1488 1492 1497 1500 1507 1512 1514 1518 1520 1520 1519 1517 1515 1513 1511 1509 1508 1509 1507 1506 1505 1503 1500 1499 1497 1497
1481 1477 1476 1477 1477 1476 1483 1470 1473 1477 1486 1498 1479 1500 1482 1478 1477 1482 1484 1488 1494 1499 1505 1509 1512 1517 1519 1520 1519 1517 1514 1513 1511 1509 1507 1506 1504 1503 1502 1500 1498 1498 1495 1494
1469 1466 1469 1472 1467 1468 1473 1468 1473 1475 1484 1486 1485 1499 1480 1475 1482 1481 1483 1486 1491 1496 1499 1505 1510 1514 1516 1517 1518 1517 1513 1511 1509 1506 1505 1504 1502 1501 1499 1498 1497 1495 1493 1491
1462 1460 1459 1460 1460 1461 1465 1472 1475 1480 1489 1510 1489 1496 1474 1474 1462 1474 1480 1483 1487 1492 1498 1503 1508 1511 1514 1515 1515 1515 1511 1509 1507 1506 1504 1503 1501 1499 1498 1496 1494 1492 1490 1488
1462 1455 1452 1456 1460 1458 1463 1479 1512 1513 1515 1499 1476 1485 1463 1455 1450 1457 1468 1478 1483 1488 1493 1499 1504 1508 1509 1512 1513 1512 1509 1507 1505 1504 1502 1501 1498 1497 1496 1495 1493 1492 1489 1486
1465 1465 1453 1446 1452 1460 1460 1466 1489 1498 1504 1488 1468 1480 1459 1443 1444 1451 1462 1471 1480 1486 1492 1497 1502 1505 1507 1508 1509 1508 1506 1506 1504 1503 1501 1499 1497 1495 1494 1495 1494 1493 1490 1486
1453 1450 1435 1437 1442 1451 1459 1463 1458 1472 1471 1497 1476 1458 1458 1453 1453 1456 1464 1471 1476 1482 1489 1494 1500 1503 1504 1505 1505 1504 1504 1503 1502 1502 1500 1498 1496 1494 1494 1496 1495 1494 1492 1487
1437 1449 1430 1428 1437 1439 1446 1450 1472 1479 1484 1483 1466 1461 1469 1463 1461 1462 1467 1471 1476 1482 1488 1492 1496 1500 1502 1503 1502 1500 1501 1501 1502 1501 1500 1498 1496 1495 1494 1496 1497 1495 1493 1489
1436 1446 1440 1430 1425 1430 1443 1450 1452 1460 1468 1477 1477 1474 1443 1452 1454 1460 1465 1468 1471 1477 1483 1489 1494 1498 1500 1502 1500 1499 1499 1500 1501 1501 1500 1498 1496 1496 1497 1496 1496 1495 1494 1490
1424 1438 1444 1437 1420 1420 1425 1431 1442 1463 1466 1471 1475 1469 1439 1445 1449 1455 1460 1464 1470 1477 1483 1488 1491 1493 1496 1498 1499 1498 1499 1500 1501 1502 1502 1499 1496 1497 1498 1497 1496 1496 1494 1490
1435 1433 1445 1437 1428 1420 1422 1425 1428 1438 1451 1455 1477 1458 1441 1444 1447 1452 1457 1460 1464 1472 1480 1487 1490 1490 1491 1493 1494 1496 1498 1501 1501 1503 1502 1499 1497 1496 1497 1497 1496 1495 1493 1491
1439 1428 1421 1428 1423 1418 1425 1423 1427 1433 1449 1446 1451 1447 1444 1446 1451 1455 1460 1463 1467 1472 1474 1479 1486 1487 1487 1490 1491 1495 1498 1501 1500 1502 1501 1499 1497 1495 1496 1496 1494 1493 1493 1490
1449 1442 1439 1424 1424 1426 1435 1429 1430 1438 1442 1451 1446 1450 1445 1446 1448 1448 1453 1463 1465 1464 1472 1474 1479 1479 1482 1485 1488 1492 1495 1498 1498 1501 1500 1498 1497 1495 1495 1495 1493 1493 1492 1490
1448 1445 1447 1443 1430 1431 1443 1441 1440 1441 1440 1446 1449 1449 1443 1442 1444 1439 1440 1445 1448 1456 1462 1464 1469 1473 1477 1481 1484 1488 1493 1494 1497 1497 1497 1497 1496 1495 1495 1494 1493 1493 1492 1489
1444 1447 1445 1441 1428 1427 1439 1441 1440 1438 1437 1438 1442 1439 1434 1434 1437 1432 1427 1428 1436 1443 1449 1458 1460 1466 1471 1477 1481 1486 1490 1492 1497 1496 1495 1496 1495 1494 1495 1494 1493 1493 1491 1489
1442 1446 1445 1444 1441 1450 1433 1425 1425 1425 1425 1429 1427 1428 1429 1425 1427 1425 1423 1424 1430 1436 1445 1453 1455 1462 1468 1473 1479 1483 1487 1491 1493 1493 1493 1494 1493 1494 1494 1494 1493 1492 1492 1490
1437 1444 1453 1458 1450 1437 1430 1424 1423 1427 1424 1422 1426 1426 1425 1424 1426 1424 1424 1424 1425 1431 1440 1447 1452 1457 1463 1470 1476 1480 1484 1489 1492 1491 1492 1493 1493 1493 1493 1494 1493 1493 1492 1491
1430 1438 1452 1457 1454 1442 1423 1418 1418 1422 1430 1418 1419 1420 1419 1417 1427 1427 1421 1421 1425 1430 1438 1441 1449 1456 1463 1469 1473 1477 1481 1484 1487 1489 1491 1492 1492 1492 1493 1494 1494 1493 1493 1492
1437 1443 1441 1442 1443 1438 1424 1422 1420 1431 1435 1417 1416 1416 1416 1422 1426 1423 1421 1422 1426 1431 1436 1442 1449 1455 1461 1465 1469 1475 1479 1482 1485 1487 1490 1491 1492 1492 1493 1494 1494 1495 1494 1493
1430 1436 1437 1438 1440 1439 1420 1420 1423 1424 1419 1417 1415 1416 1417 1419 1423 1424 1425 1426 1429 1432 1439 1444 1448 1455 1461 1464 1468 1474 1478 1481 1483 1486 1489 1490 1491 1492 1494 1494 1495 1495 1495 1494
1432 1426 1434 1431 1431 1417 1415 1416 1415 1415 1415 1416 1416 1417 1417 1420 1423 1425 1426 1430 1433 1436 1440 1444 1449 1454 1459 1463 1468 1472 1476 1480 1483 1486 1488 1490 1491 1492 1493 1494 1494 1494 1494 1494
1416 1417 1426 1424 1415 1413 1410 1411 1409 1409 1411 1412 1413 1414 1416 1418 1423 1426 1428 1431 1434 1437 1441 1445 1449 1453 1458 1464 1468 1472 1475 1479 1482 1485 1488 1490 1491 1491 1494 1494 1494 1495 1494 1494
1418 1417 1421 1421 1417 1411 1408 1409 1409 1410 1411 1411 1411 1413 1416 1418 1422 1424 1427 1430 1433 1437 1441 1446 1449 1453 1458 1463 1466 1469 1473 1478 1481 1484 1487 1489 1490 1492 1494 1494 1494 1495 1494 1494
1409 1411 1418 1416 1411 1411 1408 1407 1408 1410 1409 1410 1412 1413 1414 1417 1419 1422 1426 1429 1432 1436 1440 1445 1450 1454 1459 1462 1465 1468 1473 1477 1480 1483 1486 1488 1490 1492 1493 1494 1493 1494 1494 1494
Wind_Speed
14 4 9 19 14 8 9 11 7 6 8 9 14 9 9 15 17 18 28 31 27 21 13 5 2 1 5 5 5 7 8 8 9 8 8 9 13 14 14 13 13 15 15 15
6 16 17 12 11 14 17 18 12 9 4 5 10 11 9 7 9 23 29 31 29 24 17 11 7 7 7 7 6 7 8 8 7 6 8 7 6 3 4 11 14 16 16 13
16 8 18 16 16 18 16 17 10 9 7 2 5 4 6 7 9 20 30 29 25 23 24 17 13 8 8 4 4 6 6 10 8 6 5 2 3 4 7 10 11 14 18 18
13 20 23 18 19 15 12 5 6 5 5 8 2 7 6 6 15 11 25 33 31 28 22 19 13 4 3 1 7 6 6 7 8 8 7 7 6 8 10 12 13 13 16 19
9 12 16 22 8 17 9 2 1 1 3 2 1 6 4 5 6 14 19 29 25 22 21 19 11 8 7 5 4 4 5 7 8 8 8 7 8 8 10 12 12 11 13 16
13 21 9 21 12 11 3 3 4 4 3 5 6 6 8 9 17 15 19 26 32 29 24 17 13 13 8 7 5 6 5 6 9 9 9 8 8 9 12 13 15 16 16 16
14 21 21 10 5 6 7 7 1 2 1 8 12 11 19 8 8 20 21 29 34 30 24 18 19 16 12 8 9 7 4 5 7 8 9 9 9 10 12 14 15 16 17 17
13 11 17 10 13 6 10 11 6 7 5 4 12 7 6 4 13 34 34 36 35 28 21 18 19 17 15 12 9 7 4 4 5 7 9 10 11 11 12 13 12 14 14 15
9 14 8 21 6 11 5 14 9 4 1 2 4 2 3 7 12 23 28 32 33 29 24 25 23 18 17 13 8 7 4 2 4 5 7 9 10 11 12 12 11 13 14 14
4 5 12 12 12 19 10 4 6 4 5 8 5 6 5 7 8 14 16 23 29 30 28 27 23 19 17 12 8 6 4 2 2 4 5 7 9 10 10 10 11 12 12 13
23 10 6 8 21 23 13 14 5 7 7 5 2 5 4 12 13 14 15 26 35 31 29 25 20 19 15 10 7 5 4 3 3 3 6 8 9 10 11 10 11 11 13 12
23 10 15 18 6 16 16 21 13 6 10 5 4 6 6 14 14 18 20 28 31 27 25 23 25 21 15 11 6 4 4 5 5 6 7 6 4 4 6 6 6 5 6 7
8 10 5 11 6 8 17 17 16 11 5 14 5 5 6 11 13 15 13 27 33 29 24 24 23 24 19 14 10 6 7 6 7 5 3 2 1 1 2 2 3 3 3 6
19 5 20 14 2 3 12 13 8 4 7 9 9 2 8 1 12 12 16 22 28 27 26 31 29 25 21 15 11 8 11 11 9 7 6 3 2 2 1 1 2 3 3 3
7 0 10 4 10 9 7 9 6 2 3 5 4 5 5 7 10 22 26 25 24 31 32 33 34 31 25 16 12 10 9 11 7 7 6 5 4 3 2 3 4 4 4 4
1 3 5 6 7 7 4 10 11 8 9 7 9 14 8 17 19 23 27 38 35 36 39 37 37 34 27 20 16 12 9 12 10 9 9 7 5 3 3 2 3 4 4 4
0 1 3 5 10 12 4 10 11 11 12 8 10 12 11 13 17 18 29 26 37 42 41 38 39 36 28 21 17 17 16 13 14 11 9 7 5 3 2 1 2 5 8 9
1 2 3 4 7 5 7 12 17 17 17 14 15 11 9 12 11 3 8 26 38 37 36 38 37 34 27 21 19 20 16 15 13 11 8 7 5 4 3 3 5 7 9 10
8 4 1 1 3 7 10 10 3 9 10 1 2 8 10 14 9 4 4 20 32 39 41 41 38 34 30 24 23 22 20 18 15 12 10 8 5 4 5 6 7 9 9 11
11 9 4 3 3 4 5 4 7 2 5 6 9 5 3 7 2 3 7 20 31 37 40 43 39 33 25 24 24 24 22 18 13 12 10 8 7 6 8 9 10 11 10 9
4 2 11 7 6 5 9 15 19 2 7 8 2 2 4 3 3 12 17 25 33 39 41 39 35 31 27 27 29 26 22 17 14 13 11 10 9 9 10 11 12 12 10 6
4 5 4 5 7 8 2 1 2 5 3 0 2 3 8 12 16 19 21 26 31 36 37 35 32 27 26 28 27 25 21 17 15 12 11 11 10 11 12 12 12 11 7 5
3 6 5 8 6 7 8 10 12 10 7 6 8 9 10 17 20 21 23 25 27 31 32 29 26 26 26 27 25 24 22 21 17 16 14 13 13 12 11 11 11 10 7 5
3 8 1 3 3 11 22 14 16 15 11 8 9 10 11 14 20 22 22 24 26 27 26 25 24 27 27 24 23 20 21 18 16 17 17 16 14 11 9 8 7 5 5 3
4 3 2 3 11 10 11 8 5 2 7 8 10 8 10 13 20 22 24 26 26 25 23 24 26 26 25 21 20 21 21 19 19 19 18 16 12 8 8 11 10 8 10 7
6 6 4 4 6 15 9 8 10 7 12 8 13 12 9 12 18 21 24 24 24 24 24 25 25 24 23 22 17 16 20 18 17 15 15 15 14 10 9 6 8 9 9 9
Wind_Direction
194 181 212 222 221 229 252 259 270 273 199 149 189 211 237 188 196 183 150 144 141 135 136 130 84 235 273 305 318 333 338 3 2 358 18 35 44 14 3 354 348 340 332 324
257 225 222 238 239 225 239 257 266 282 154 140 216 222 222 229 249 186 160 144 143 141 142 137 169 218 278 307 304 320 336 347 356 357 15 33 50 34 9 346 341 339 334 336
218 234 217 227 233 242 234 235 247 235 293 229 160 233 218 242 215 149 151 153 148 151 150 159 178 212 284 324 3 24 8 14 19 11 1 356 267 281 290 313 322 327 321 325
251 235 253 232 233 234 246 223 258 265 275 265 116 279 247 230 227 138 145 146 143 139 148 163 180 209 208 335 75 59 348 12 26 37 30 18 356 335 326 320 314 303 301 306
216 200 223 240 234 226 242 213 102 302 304 306 156 294 204 196 167 169 152 149 153 162 171 173 184 181 192 182 155 123 313 348 6 8 12 6 358 359 336 336 327 319 306 307
245 257 230 235 236 221 266 95 68 33 67 271 160 210 250 207 222 167 155 151 152 155 168 176 172 173 183 190 171 157 262 336 3 6 14 10 1 352 341 341 340 339 338 334
248 251 256 245 239 222 178 113 34 326 285 241 184 218 241 245 226 171 164 154 164 170 175 179 169 174 188 201 174 172 255 338 355 358 10 15 16 5 354 350 347 343 345 345
216 255 222 220 207 199 201 171 174 195 197 242 214 240 243 210 159 156 160 156 163 170 176 167 164 183 199 204 189 183 249 338 356 14 18 21 22 20 14 6 1 356 357 2
193 233 189 213 171 182 210 210 194 311 168 82 219 164 47 76 97 129 138 147 159 169 170 169 174 182 203 207 193 190 225 321 8 33 28 28 28 27 25 23 22 24 21 29
253 299 221 218 189 211 195 153 184 212 216 232 216 220 214 158 134 135 142 151 159 170 173 177 184 189 205 215 199 185 194 214 51 51 37 37 39 35 32 35 34 41 34 31
227 252 281 237 207 203 200 222 207 168 210 184 204 249 200 173 163 154 161 166 172 177 179 182 182 194 212 216 204 186 175 138 107 83 67 60 51 39 33 37 38 36 36 30
217 214 247 250 264 191 196 216 205 185 220 210 175 251 139 156 166 165 169 173 180 181 182 174 180 191 204 211 205 190 167 137 90 83 84 85 72 47 32 31 31 25 32 8
321 208 221 240 244 199 201 208 214 201 141 218 146 255 167 168 174 170 160 176 176 180 178 178 194 195 195 202 208 193 150 122 104 119 189 162 117 103 64 5 8 4 26 341
346 274 215 222 290 145 200 214 209 176 206 225 224 267 283 62 119 92 85 148 168 183 186 182 193 191 189 196 202 194 162 156 166 176 214 196 181 157 155 282 322 338 1 340
338 309 341 359 21 48 52 275 298 212 212 195 255 275 269 285 175 183 192 184 202 199 183 184 191 190 188 192 193 184 171 162 180 170 193 187 199 205 221 265 321 349 346 331
310 330 8 328 322 37 340 296 273 288 278 242 247 261 241 272 276 202 202 194 203 186 187 183 195 192 188 189 188 180 161 163 201 191 192 206 214 199 232 309 345 2 39 39
15 306 56 290 338 344 246 225 253 241 243 247 239 246 248 252 252 239 217 196 181 184 183 181 192 189 186 185 187 167 179 190 208 212 211 210 198 188 197 48 62 71 71 68
176 53 34 294 356 281 298 283 254 250 249 249 247 275 300 289 250 110 185 194 187 179 173 179 187 182 176 176 176 170 186 190 196 196 196 190 185 155 136 123 98 88 78 72
198 149 218 189 250 304 301 275 261 246 260 210 283 292 263 290 151 58 230 213 198 184 177 182 187 181 175 183 181 169 182 200 209 205 202 194 181 155 137 130 108 92 79 65
213 195 155 153 195 281 273 319 310 31 278 236 245 265 337 351 3 250 158 188 175 176 181 183 184 184 188 180 168 176 194 203 201 195 183 171 160 143 128 117 108 97 83 68
137 124 221 229 231 266 247 255 278 214 256 283 87 77 34 102 216 159 155 155 168 176 177 177 179 182 181 179 178 184 191 198 190 178 166 156 143 128 117 115 107 102 94 75
150 174 203 225 220 248 9 72 216 217 13 357 53 122 105 135 149 158 161 158 165 169 169 175 175 176 179 179 182 182 190 194 190 182 167 152 135 131 123 117 117 113 125 120
233 171 184 184 209 232 232 207 266 231 201 198 186 172 161 158 164 165 165 168 170 171 171 175 179 177 179 183 185 187 191 192 176 176 168 152 138 138 147 148 148 152 165 150
345 42 310 32 249 246 262 282 302 228 205 181 203 190 190 177 172 169 171 174 175 176 177 179 180 177 175 181 187 194 189 180 173 164 152 142 142 156 150 163 167 154 162 144
196 95 130 266 312 317 328 317 16 172 163 187 185 195 208 189 179 180 176 177 178 178 181 184 180 177 178 180 180 183 186 175 166 161 159 160 166 175 136 129 120 120 112 100
184 188 167 229 282 260 251 295 284 220 175 203 204 179 190 191 184 184 181 182 182 182 176 173 170 168 166 173 169 171 162 162 164 164 168 164 162 162 158 141 124 105 95 82